Aviation Digital Data Service (ADDS)

Output produced by METARs form (2310 UTC 15 August 2018)
found at http://www.aviationweather.gov/adds/metars/
 
OIAA 152300Z 26006KT CAVOK 30/09 Q0998
TAF OIAA 152330Z 1600/1706 270004MPS 7000 NSC 
     TEMPO 1609/1615 32007G12MPS 
     TEMPO 1700/1706 28008MPS
       
OIAG 152000Z 00000KT CAVOK 34/05 Q0998
OIAW 152300Z 29006KT 7000 NSC 34/08 Q0997
TAF OIAW 152330Z 1600/1706 28004MPS 6000 NSC 
     PROB40 1601/1603 4000 FU 
     TEMPO 1604/1608 3000 DU 
     TEMPO 1609/1615 32007G12MPS
       
OIAA 152300Z 26006KT CAVOK 30/09 Q0998
TAF OIAA 152330Z 1600/1706 270004MPS 7000 NSC 
     TEMPO 1609/1615 32007G12MPS 
     TEMPO 1700/1706 28008MPS
       
OIAG 152000Z 00000KT CAVOK 34/05 Q0998
OIAH 152300Z 00000KT CAVOK 29/02 Q1003
OIAM 152300Z 30004KT CAVOK 30/13 Q0997
OIAW 152300Z 29006KT 7000 NSC 34/08 Q0997
TAF OIAW 152330Z 1600/1706 28004MPS 6000 NSC 
     PROB40 1601/1603 4000 FU 
     TEMPO 1604/1608 3000 DU 
     TEMPO 1609/1615 32007G12MPS
       
OIBB 152000Z 00000KT CAVOK 31/20 Q0998 A2948
OIBK 152300Z 27004KT 4000 BR NSC 32/30 Q0996
TAF OIBK 152330Z 1600/1706 28004MPS 4000 BR NSC 
     TEMPO 1601/1604 2000 BR 
     TEMPO 1604/1610 12007MPS 5000 HZ 
     TEMPO 1620/1704 3000 BR
       
OIBL 152100Z 00000KT 5000 HZ NSC 34/24 Q0996
OIBP 151800Z 00000KT 8000 NSC 34/28 Q0997 A2946
OICC 152300Z 11004KT CAVOK 20/M03 Q1011 A2988
OICI 152300Z 09002KT 8000 NSC 22/03 Q1012 A2990
TAF OICI 152330Z 1600/1706 09004MPS 7000 NSC 
     TEMPO 1609/1612 21007MPS
       
OIFM 152300Z 32004KT CAVOK 20/M04 Q1015 A2998
TAF OIFM 152330Z 1600/1706 27004MPS 7000 NSC 
     TEMPO 1600/1604 5000 HZ 
     BECMG 1606/1608 11004MPS 
     TEMPO 1615/1621 15007G12MPS
       
OIFS 152300Z 26004KT CAVOK 15/M06 Q1020
OIGG 152300Z 24006KT 9999 FEW020 BKN070 23/18 Q1015
OIIE 152300Z 32020KT CAVOK 22/11 Q1012
TAF OIIE 152330Z 1600/1706 33007MPS CAVOK 
     BECMG 1606/1608 12004MPS 
     TEMPO 1612/1618 10007G12MPS
       
OIII 152300Z 27008KT CAVOK 25/08 Q1013 A2992 NOSIG
TAF OIII 152330Z 1600/1706 15004MPS CAVOK 
     TEMPO 1612/1616 12008MPS
       
OIIK 152300Z 23002KT CAVOK 18/11 Q1015
OIIP 151800Z 28012KT CAVOK 23/06 Q1013
OIKB 152300Z 03006KT 3000 HZ NSC 31/27 Q0997 A2946
TAF OIKB 152330Z 1600/1706 04004MPS 3000 HZ NSC 
     BECMG 1600/1602 2000 BR 
     BECMG 1604/1606 4000 HZ 
     TEMPO 1609/1715 18007MPS
       
OIKK 152300Z 00000KT CAVOK 17/M12 Q1016 A3000
TAF OIKK 152330Z 1600/1706 34004MPS CAVOK 
     TEMPO 1609/1615 03007G12MPS
       
OIKQ 152300Z 00000KT 3000 BR NSC 32/28 Q0997
OIMB 152300Z 10010KT CAVOK 23/M03 Q1014
OIMC 152300Z AUTO 36004KT //// // ////// 26/09 Q1009
OIMD 152300Z AUTO 26010KT //// // ////// 22/M00 Q1011
OIMM 152300Z 00000KT CAVOK 24/06 Q1015 A2998
TAF OIMM 152330Z 1600/1706 33004MPS CAVOK 
     TEMPO 1609/1615 06007G12MPS
       
OIMN 152300Z 21002KT CAVOK 21/16 Q1018
OIMQ 152300Z AUTO 05010KT //// // ////// 29/05 Q1012
OINE 152300Z AUTO 20004KT //// // ////// 24/20 Q1014
OING 152300Z 21004KT 9999 FEW025 BKN090 25/20 Q1015
OINN 152300Z 00000KT 9999 FEW020CB BKN025 22/20 Q1013
OINR 152100Z 00000KT 9999 FEW027 SCT090 23/19 Q1013
OINZ 152300Z 20004KT 9999 SCT030 BKN090 24/21 Q1014
OISF 152300Z 00000KT CAVOK 25/05 Q1006
OISL 152100Z 00000KT CAVOK 33/14 Q1003
TAF OISL 152330Z 1600/1706 25004MPS CAVOK 
     TEMPO 1615/1618 21007MPS
       
OISS 152300Z 00000KT CAVOK 23/04 Q1011 A2987
TAF OISS 152330Z 1600/1706 27004MPS 8000 NSC
       
OISY 152300Z 00000KT CAVOK 21/00 Q1016
OITM 152100Z 10017KT CAVOK 22/09 Q1015
OITP 152300Z AUTO 14004KT //// // ////// 21/17 Q1013
OITR 152300Z 35006KT CAVOK 20/09 Q1016
TAF OITR 152330Z 1600/1706 35004MPS 8000 FEW035 
     TEMPO 1606/1612 04008MPS
       
OITT 152300Z 07010KT CAVOK 19/10 Q1018 A3007
TAF OITT 152330Z 1600/1706 09006MPS 8000 FEW035 
     TEMPO 1606/1609 09009G14MPS 
     TEMPO 1612/1615 09004MPS
       
OIYY 152300Z 17002KT CAVOK 24/M12 Q1012
OIZB 152100Z 36023KT CAVOK 32/01 Q0999
OIZH 152300Z 20004KT CAVOK 21/M05 Q1011 A2987
TAF OIZH 152330Z 1600/1706 27004MPS 8000 NSC 
     TEMPO 1609/1615 03007G12MPS
       
OIZI 152100Z 10004KT CAVOK 35/17 Q1001
OIZJ 152100Z 10014KT 5000 BR SCT015 31/29 Q0997
OIAA 152300Z 26006KT CAVOK 30/09 Q0998
TAF OIAA 152330Z 1600/1706 270004MPS 7000 NSC 
     TEMPO 1609/1615 32007G12MPS 
     TEMPO 1700/1706 28008MPS
       
OIAG 152000Z 00000KT CAVOK 34/05 Q0998
OIAH 152300Z 00000KT CAVOK 29/02 Q1003
OIAM 152300Z 30004KT CAVOK 30/13 Q0997
OIAW 152300Z 29006KT 7000 NSC 34/08 Q0997
TAF OIAW 152330Z 1600/1706 28004MPS 6000 NSC 
     PROB40 1601/1603 4000 FU 
     TEMPO 1604/1608 3000 DU 
     TEMPO 1609/1615 32007G12MPS
       
OIBB 152000Z 00000KT CAVOK 31/20 Q0998 A2948
OIBK 152300Z 27004KT 4000 BR NSC 32/30 Q0996
TAF OIBK 152330Z 1600/1706 28004MPS 4000 BR NSC 
     TEMPO 1601/1604 2000 BR 
     TEMPO 1604/1610 12007MPS 5000 HZ 
     TEMPO 1620/1704 3000 BR
       
OIBL 152100Z 00000KT 5000 HZ NSC 34/24 Q0996
OIBP 151800Z 00000KT 8000 NSC 34/28 Q0997 A2946
OICC 152300Z 11004KT CAVOK 20/M03 Q1011 A2988
OICI 152300Z 09002KT 8000 NSC 22/03 Q1012 A2990
TAF OICI 152330Z 1600/1706 09004MPS 7000 NSC 
     TEMPO 1609/1612 21007MPS
       
OIFM 152300Z 32004KT CAVOK 20/M04 Q1015 A2998
TAF OIFM 152330Z 1600/1706 27004MPS 7000 NSC 
     TEMPO 1600/1604 5000 HZ 
     BECMG 1606/1608 11004MPS 
     TEMPO 1615/1621 15007G12MPS
       
OIFS 152300Z 26004KT CAVOK 15/M06 Q1020
OIGG 152300Z 24006KT 9999 FEW020 BKN070 23/18 Q1015
OIIE 152300Z 32020KT CAVOK 22/11 Q1012
TAF OIIE 152330Z 1600/1706 33007MPS CAVOK 
     BECMG 1606/1608 12004MPS 
     TEMPO 1612/1618 10007G12MPS
       
OIII 152300Z 27008KT CAVOK 25/08 Q1013 A2992 NOSIG
TAF OIII 152330Z 1600/1706 15004MPS CAVOK 
     TEMPO 1612/1616 12008MPS
       
OIIK 152300Z 23002KT CAVOK 18/11 Q1015
OIIP 151800Z 28012KT CAVOK 23/06 Q1013
OIKB 152300Z 03006KT 3000 HZ NSC 31/27 Q0997 A2946
TAF OIKB 152330Z 1600/1706 04004MPS 3000 HZ NSC 
     BECMG 1600/1602 2000 BR 
     BECMG 1604/1606 4000 HZ 
     TEMPO 1609/1715 18007MPS
       
OIKK 152300Z 00000KT CAVOK 17/M12 Q1016 A3000
TAF OIKK 152330Z 1600/1706 34004MPS CAVOK 
     TEMPO 1609/1615 03007G12MPS
       
OIKQ 152300Z 00000KT 3000 BR NSC 32/28 Q0997
OIMB 152300Z 10010KT CAVOK 23/M03 Q1014
OIMC 152300Z AUTO 36004KT //// // ////// 26/09 Q1009
OIMD 152300Z AUTO 26010KT //// // ////// 22/M00 Q1011
OIMM 152300Z 00000KT CAVOK 24/06 Q1015 A2998
TAF OIMM 152330Z 1600/1706 33004MPS CAVOK 
     TEMPO 1609/1615 06007G12MPS
       
OIMN 152300Z 21002KT CAVOK 21/16 Q1018
OIMQ 152300Z AUTO 05010KT //// // ////// 29/05 Q1012
OINE 152300Z AUTO 20004KT //// // ////// 24/20 Q1014
OING 152300Z 21004KT 9999 FEW025 BKN090 25/20 Q1015
OINN 152300Z 00000KT 9999 FEW020CB BKN025 22/20 Q1013
OINR 152100Z 00000KT 9999 FEW027 SCT090 23/19 Q1013
OINZ 152300Z 20004KT 9999 SCT030 BKN090 24/21 Q1014
OISF 152300Z 00000KT CAVOK 25/05 Q1006
OISL 152100Z 00000KT CAVOK 33/14 Q1003
TAF OISL 152330Z 1600/1706 25004MPS CAVOK 
     TEMPO 1615/1618 21007MPS
       
OISS 152300Z 00000KT CAVOK 23/04 Q1011 A2987
TAF OISS 152330Z 1600/1706 27004MPS 8000 NSC
       
OISY 152300Z 00000KT CAVOK 21/00 Q1016
OITM 152100Z 10017KT CAVOK 22/09 Q1015
OITP 152300Z AUTO 14004KT //// // ////// 21/17 Q1013
OITR 152300Z 35006KT CAVOK 20/09 Q1016
TAF OITR 152330Z 1600/1706 35004MPS 8000 FEW035 
     TEMPO 1606/1612 04008MPS
       
OITT 152300Z 07010KT CAVOK 19/10 Q1018 A3007
TAF OITT 152330Z 1600/1706 09006MPS 8000 FEW035 
     TEMPO 1606/1609 09009G14MPS 
     TEMPO 1612/1615 09004MPS
       
OIYY 152300Z 17002KT CAVOK 24/M12 Q1012
OIZB 152100Z 36023KT CAVOK 32/01 Q0999
OIZH 152300Z 20004KT CAVOK 21/M05 Q1011 A2987
TAF OIZH 152330Z 1600/1706 27004MPS 8000 NSC 
     TEMPO 1609/1615 03007G12MPS
       
OIZI 152100Z 10004KT CAVOK 35/17 Q1001
OIZJ 152100Z 10014KT 5000 BR SCT015 31/29 Q0997
OIKB 152300Z 03006KT 3000 HZ NSC 31/27 Q0997 A2946
TAF OIKB 152330Z 1600/1706 04004MPS 3000 HZ NSC 
     BECMG 1600/1602 2000 BR 
     BECMG 1604/1606 4000 HZ 
     TEMPO 1609/1715 18007MPS
       
OIBL 152100Z 00000KT 5000 HZ NSC 34/24 Q0996
OIAA 152300Z 26006KT CAVOK 30/09 Q0998
TAF OIAA 152330Z 1600/1706 270004MPS 7000 NSC 
     TEMPO 1609/1615 32007G12MPS 
     TEMPO 1700/1706 28008MPS
       
OIAG 152000Z 00000KT CAVOK 34/05 Q0998
OIAH 152300Z 00000KT CAVOK 29/02 Q1003
OIAM 152300Z 30004KT CAVOK 30/13 Q0997
OIAW 152300Z 29006KT 7000 NSC 34/08 Q0997
TAF OIAW 152330Z 1600/1706 28004MPS 6000 NSC 
     PROB40 1601/1603 4000 FU 
     TEMPO 1604/1608 3000 DU 
     TEMPO 1609/1615 32007G12MPS
       
OIBB 152000Z 00000KT CAVOK 31/20 Q0998 A2948
OIBK 152300Z 27004KT 4000 BR NSC 32/30 Q0996
TAF OIBK 152330Z 1600/1706 28004MPS 4000 BR NSC 
     TEMPO 1601/1604 2000 BR 
     TEMPO 1604/1610 12007MPS 5000 HZ 
     TEMPO 1620/1704 3000 BR
       
OIBL 152100Z 00000KT 5000 HZ NSC 34/24 Q0996
OIBP 151800Z 00000KT 8000 NSC 34/28 Q0997 A2946
OICC 152300Z 11004KT CAVOK 20/M03 Q1011 A2988
OICI 152300Z 09002KT 8000 NSC 22/03 Q1012 A2990
TAF OICI 152330Z 1600/1706 09004MPS 7000 NSC 
     TEMPO 1609/1612 21007MPS
       
OIFM 152300Z 32004KT CAVOK 20/M04 Q1015 A2998
TAF OIFM 152330Z 1600/1706 27004MPS 7000 NSC 
     TEMPO 1600/1604 5000 HZ 
     BECMG 1606/1608 11004MPS 
     TEMPO 1615/1621 15007G12MPS
       
OIFS 152300Z 26004KT CAVOK 15/M06 Q1020
OIGG 152300Z 24006KT 9999 FEW020 BKN070 23/18 Q1015
OIIE 152300Z 32020KT CAVOK 22/11 Q1012
TAF OIIE 152330Z 1600/1706 33007MPS CAVOK 
     BECMG 1606/1608 12004MPS 
     TEMPO 1612/1618 10007G12MPS
       
OIII 152300Z 27008KT CAVOK 25/08 Q1013 A2992 NOSIG
TAF OIII 152330Z 1600/1706 15004MPS CAVOK 
     TEMPO 1612/1616 12008MPS
       
OIIK 152300Z 23002KT CAVOK 18/11 Q1015
OIIP 151800Z 28012KT CAVOK 23/06 Q1013
OIKB 152300Z 03006KT 3000 HZ NSC 31/27 Q0997 A2946
TAF OIKB 152330Z 1600/1706 04004MPS 3000 HZ NSC 
     BECMG 1600/1602 2000 BR 
     BECMG 1604/1606 4000 HZ 
     TEMPO 1609/1715 18007MPS
       
OIKK 152300Z 00000KT CAVOK 17/M12 Q1016 A3000
TAF OIKK 152330Z 1600/1706 34004MPS CAVOK 
     TEMPO 1609/1615 03007G12MPS
       
OIKQ 152300Z 00000KT 3000 BR NSC 32/28 Q0997
OIMB 152300Z 10010KT CAVOK 23/M03 Q1014
OIMC 152300Z AUTO 36004KT //// // ////// 26/09 Q1009
OIMD 152300Z AUTO 26010KT //// // ////// 22/M00 Q1011
OIMM 152300Z 00000KT CAVOK 24/06 Q1015 A2998
TAF OIMM 152330Z 1600/1706 33004MPS CAVOK 
     TEMPO 1609/1615 06007G12MPS
       
OIMN 152300Z 21002KT CAVOK 21/16 Q1018
OIMQ 152300Z AUTO 05010KT //// // ////// 29/05 Q1012
OINE 152300Z AUTO 20004KT //// // ////// 24/20 Q1014
OING 152300Z 21004KT 9999 FEW025 BKN090 25/20 Q1015
OINN 152300Z 00000KT 9999 FEW020CB BKN025 22/20 Q1013
OINR 152100Z 00000KT 9999 FEW027 SCT090 23/19 Q1013
OINZ 152300Z 20004KT 9999 SCT030 BKN090 24/21 Q1014
OISF 152300Z 00000KT CAVOK 25/05 Q1006
OISL 152100Z 00000KT CAVOK 33/14 Q1003
TAF OISL 152330Z 1600/1706 25004MPS CAVOK 
     TEMPO 1615/1618 21007MPS
       
OISS 152300Z 00000KT CAVOK 23/04 Q1011 A2987
TAF OISS 152330Z 1600/1706 27004MPS 8000 NSC
       
OISY 152300Z 00000KT CAVOK 21/00 Q1016
OITM 152100Z 10017KT CAVOK 22/09 Q1015
OITP 152300Z AUTO 14004KT //// // ////// 21/17 Q1013
OITR 152300Z 35006KT CAVOK 20/09 Q1016
TAF OITR 152330Z 1600/1706 35004MPS 8000 FEW035 
     TEMPO 1606/1612 04008MPS
       
OITT 152300Z 07010KT CAVOK 19/10 Q1018 A3007
TAF OITT 152330Z 1600/1706 09006MPS 8000 FEW035 
     TEMPO 1606/1609 09009G14MPS 
     TEMPO 1612/1615 09004MPS
       
OIYY 152300Z 17002KT CAVOK 24/M12 Q1012
OIZB 152100Z 36023KT CAVOK 32/01 Q0999
OIZH 152300Z 20004KT CAVOK 21/M05 Q1011 A2987
TAF OIZH 152330Z 1600/1706 27004MPS 8000 NSC 
     TEMPO 1609/1615 03007G12MPS
       
OIZI 152100Z 10004KT CAVOK 35/17 Q1001
OIZJ 152100Z 10014KT 5000 BR SCT015 31/29 Q0997
OIMB 152300Z 10010KT CAVOK 23/M03 Q1014
OIMN 152300Z 21002KT CAVOK 21/16 Q1018
OIBB 152000Z 00000KT CAVOK 31/20 Q0998 A2948
OIKQ 152300Z 00000KT 3000 BR NSC 32/28 Q0997
OIAA 152300Z 26006KT CAVOK 30/09 Q0998
TAF OIAA 152330Z 1600/1706 270004MPS 7000 NSC 
     TEMPO 1609/1615 32007G12MPS 
     TEMPO 1700/1706 28008MPS
       
OIAG 152000Z 00000KT CAVOK 34/05 Q0998
OIAH 152300Z 00000KT CAVOK 29/02 Q1003
OIAM 152300Z 30004KT CAVOK 30/13 Q0997
OIAW 152300Z 29006KT 7000 NSC 34/08 Q0997
TAF OIAW 152330Z 1600/1706 28004MPS 6000 NSC 
     PROB40 1601/1603 4000 FU 
     TEMPO 1604/1608 3000 DU 
     TEMPO 1609/1615 32007G12MPS
       
OIBB 152000Z 00000KT CAVOK 31/20 Q0998 A2948
OIBK 152300Z 27004KT 4000 BR NSC 32/30 Q0996
TAF OIBK 152330Z 1600/1706 28004MPS 4000 BR NSC 
     TEMPO 1601/1604 2000 BR 
     TEMPO 1604/1610 12007MPS 5000 HZ 
     TEMPO 1620/1704 3000 BR
       
OIBL 152100Z 00000KT 5000 HZ NSC 34/24 Q0996
OIBP 151800Z 00000KT 8000 NSC 34/28 Q0997 A2946
OICC 152300Z 11004KT CAVOK 20/M03 Q1011 A2988
OICI 152300Z 09002KT 8000 NSC 22/03 Q1012 A2990
TAF OICI 152330Z 1600/1706 09004MPS 7000 NSC 
     TEMPO 1609/1612 21007MPS
       
OIFM 152300Z 32004KT CAVOK 20/M04 Q1015 A2998
TAF OIFM 152330Z 1600/1706 27004MPS 7000 NSC 
     TEMPO 1600/1604 5000 HZ 
     BECMG 1606/1608 11004MPS 
     TEMPO 1615/1621 15007G12MPS
       
OIFS 152300Z 26004KT CAVOK 15/M06 Q1020
OIGG 152300Z 24006KT 9999 FEW020 BKN070 23/18 Q1015
OIIE 152300Z 32020KT CAVOK 22/11 Q1012
TAF OIIE 152330Z 1600/1706 33007MPS CAVOK 
     BECMG 1606/1608 12004MPS 
     TEMPO 1612/1618 10007G12MPS
       
OIII 152300Z 27008KT CAVOK 25/08 Q1013 A2992 NOSIG
TAF OIII 152330Z 1600/1706 15004MPS CAVOK 
     TEMPO 1612/1616 12008MPS
       
OIIK 152300Z 23002KT CAVOK 18/11 Q1015
OIIP 151800Z 28012KT CAVOK 23/06 Q1013
OIKB 152300Z 03006KT 3000 HZ NSC 31/27 Q0997 A2946
TAF OIKB 152330Z 1600/1706 04004MPS 3000 HZ NSC 
     BECMG 1600/1602 2000 BR 
     BECMG 1604/1606 4000 HZ 
     TEMPO 1609/1715 18007MPS
       
OIKK 152300Z 00000KT CAVOK 17/M12 Q1016 A3000
TAF OIKK 152330Z 1600/1706 34004MPS CAVOK 
     TEMPO 1609/1615 03007G12MPS
       
OIKQ 152300Z 00000KT 3000 BR NSC 32/28 Q0997
OIMB 152300Z 10010KT CAVOK 23/M03 Q1014
OIMC 152300Z AUTO 36004KT //// // ////// 26/09 Q1009
OIMD 152300Z AUTO 26010KT //// // ////// 22/M00 Q1011
OIMM 152300Z 00000KT CAVOK 24/06 Q1015 A2998
TAF OIMM 152330Z 1600/1706 33004MPS CAVOK 
     TEMPO 1609/1615 06007G12MPS
       
OIMN 152300Z 21002KT CAVOK 21/16 Q1018
OIMQ 152300Z AUTO 05010KT //// // ////// 29/05 Q1012
OINE 152300Z AUTO 20004KT //// // ////// 24/20 Q1014
OING 152300Z 21004KT 9999 FEW025 BKN090 25/20 Q1015
OINN 152300Z 00000KT 9999 FEW020CB BKN025 22/20 Q1013
OINR 152100Z 00000KT 9999 FEW027 SCT090 23/19 Q1013
OINZ 152300Z 20004KT 9999 SCT030 BKN090 24/21 Q1014
OISF 152300Z 00000KT CAVOK 25/05 Q1006
OISL 152100Z 00000KT CAVOK 33/14 Q1003
TAF OISL 152330Z 1600/1706 25004MPS CAVOK 
     TEMPO 1615/1618 21007MPS
       
OISS 152300Z 00000KT CAVOK 23/04 Q1011 A2987
TAF OISS 152330Z 1600/1706 27004MPS 8000 NSC
       
OISY 152300Z 00000KT CAVOK 21/00 Q1016
OITM 152100Z 10017KT CAVOK 22/09 Q1015
OITP 152300Z AUTO 14004KT //// // ////// 21/17 Q1013
OITR 152300Z 35006KT CAVOK 20/09 Q1016
TAF OITR 152330Z 1600/1706 35004MPS 8000 FEW035 
     TEMPO 1606/1612 04008MPS
       
OITT 152300Z 07010KT CAVOK 19/10 Q1018 A3007
TAF OITT 152330Z 1600/1706 09006MPS 8000 FEW035 
     TEMPO 1606/1609 09009G14MPS 
     TEMPO 1612/1615 09004MPS
       
OIYY 152300Z 17002KT CAVOK 24/M12 Q1012
OIZB 152100Z 36023KT CAVOK 32/01 Q0999
OIZH 152300Z 20004KT CAVOK 21/M05 Q1011 A2987
TAF OIZH 152330Z 1600/1706 27004MPS 8000 NSC 
     TEMPO 1609/1615 03007G12MPS
       
OIZI 152100Z 10004KT CAVOK 35/17 Q1001
OIZJ 152100Z 10014KT 5000 BR SCT015 31/29 Q0997
OIFM 152300Z 32004KT CAVOK 20/M04 Q1015 A2998
TAF OIFM 152330Z 1600/1706 27004MPS 7000 NSC 
     TEMPO 1600/1604 5000 HZ 
     BECMG 1606/1608 11004MPS 
     TEMPO 1615/1621 15007G12MPS
       
OISF 152300Z 00000KT CAVOK 25/05 Q1006
OIAH 152300Z 00000KT CAVOK 29/02 Q1003
OIAA 152300Z 26006KT CAVOK 30/09 Q0998
TAF OIAA 152330Z 1600/1706 270004MPS 7000 NSC 
     TEMPO 1609/1615 32007G12MPS 
     TEMPO 1700/1706 28008MPS
       
OIAG 152000Z 00000KT CAVOK 34/05 Q0998
OIAH 152300Z 00000KT CAVOK 29/02 Q1003
OIAM 152300Z 30004KT CAVOK 30/13 Q0997
OIAW 152300Z 29006KT 7000 NSC 34/08 Q0997
TAF OIAW 152330Z 1600/1706 28004MPS 6000 NSC 
     PROB40 1601/1603 4000 FU 
     TEMPO 1604/1608 3000 DU 
     TEMPO 1609/1615 32007G12MPS
       
OIBB 152000Z 00000KT CAVOK 31/20 Q0998 A2948
OIBK 152300Z 27004KT 4000 BR NSC 32/30 Q0996
TAF OIBK 152330Z 1600/1706 28004MPS 4000 BR NSC 
     TEMPO 1601/1604 2000 BR 
     TEMPO 1604/1610 12007MPS 5000 HZ 
     TEMPO 1620/1704 3000 BR
       
OIBL 152100Z 00000KT 5000 HZ NSC 34/24 Q0996
OIBP 151800Z 00000KT 8000 NSC 34/28 Q0997 A2946
OICC 152300Z 11004KT CAVOK 20/M03 Q1011 A2988
OICI 152300Z 09002KT 8000 NSC 22/03 Q1012 A2990
TAF OICI 152330Z 1600/1706 09004MPS 7000 NSC 
     TEMPO 1609/1612 21007MPS
       
OIFM 152300Z 32004KT CAVOK 20/M04 Q1015 A2998
TAF OIFM 152330Z 1600/1706 27004MPS 7000 NSC 
     TEMPO 1600/1604 5000 HZ 
     BECMG 1606/1608 11004MPS 
     TEMPO 1615/1621 15007G12MPS
       
OIFS 152300Z 26004KT CAVOK 15/M06 Q1020
OIGG 152300Z 24006KT 9999 FEW020 BKN070 23/18 Q1015
OIIE 152300Z 32020KT CAVOK 22/11 Q1012
TAF OIIE 152330Z 1600/1706 33007MPS CAVOK 
     BECMG 1606/1608 12004MPS 
     TEMPO 1612/1618 10007G12MPS
       
OIII 152300Z 27008KT CAVOK 25/08 Q1013 A2992 NOSIG
TAF OIII 152330Z 1600/1706 15004MPS CAVOK 
     TEMPO 1612/1616 12008MPS
       
OIIK 152300Z 23002KT CAVOK 18/11 Q1015
OIIP 151800Z 28012KT CAVOK 23/06 Q1013
OIKB 152300Z 03006KT 3000 HZ NSC 31/27 Q0997 A2946
TAF OIKB 152330Z 1600/1706 04004MPS 3000 HZ NSC 
     BECMG 1600/1602 2000 BR 
     BECMG 1604/1606 4000 HZ 
     TEMPO 1609/1715 18007MPS
       
OIKK 152300Z 00000KT CAVOK 17/M12 Q1016 A3000
TAF OIKK 152330Z 1600/1706 34004MPS CAVOK 
     TEMPO 1609/1615 03007G12MPS
       
OIKQ 152300Z 00000KT 3000 BR NSC 32/28 Q0997
OIMB 152300Z 10010KT CAVOK 23/M03 Q1014
OIMC 152300Z AUTO 36004KT //// // ////// 26/09 Q1009
OIMD 152300Z AUTO 26010KT //// // ////// 22/M00 Q1011
OIMM 152300Z 00000KT CAVOK 24/06 Q1015 A2998
TAF OIMM 152330Z 1600/1706 33004MPS CAVOK 
     TEMPO 1609/1615 06007G12MPS
       
OIMN 152300Z 21002KT CAVOK 21/16 Q1018
OIMQ 152300Z AUTO 05010KT //// // ////// 29/05 Q1012
OINE 152300Z AUTO 20004KT //// // ////// 24/20 Q1014
OING 152300Z 21004KT 9999 FEW025 BKN090 25/20 Q1015
OINN 152300Z 00000KT 9999 FEW020CB BKN025 22/20 Q1013
OINR 152100Z 00000KT 9999 FEW027 SCT090 23/19 Q1013
OINZ 152300Z 20004KT 9999 SCT030 BKN090 24/21 Q1014
OISF 152300Z 00000KT CAVOK 25/05 Q1006
OISL 152100Z 00000KT CAVOK 33/14 Q1003
TAF OISL 152330Z 1600/1706 25004MPS CAVOK 
     TEMPO 1615/1618 21007MPS
       
OISS 152300Z 00000KT CAVOK 23/04 Q1011 A2987
TAF OISS 152330Z 1600/1706 27004MPS 8000 NSC
       
OISY 152300Z 00000KT CAVOK 21/00 Q1016
OITM 152100Z 10017KT CAVOK 22/09 Q1015
OITP 152300Z AUTO 14004KT //// // ////// 21/17 Q1013
OITR 152300Z 35006KT CAVOK 20/09 Q1016
TAF OITR 152330Z 1600/1706 35004MPS 8000 FEW035 
     TEMPO 1606/1612 04008MPS
       
OITT 152300Z 07010KT CAVOK 19/10 Q1018 A3007
TAF OITT 152330Z 1600/1706 09006MPS 8000 FEW035 
     TEMPO 1606/1609 09009G14MPS 
     TEMPO 1612/1615 09004MPS
       
OIYY 152300Z 17002KT CAVOK 24/M12 Q1012
OIZB 152100Z 36023KT CAVOK 32/01 Q0999
OIZH 152300Z 20004KT CAVOK 21/M05 Q1011 A2987
TAF OIZH 152330Z 1600/1706 27004MPS 8000 NSC 
     TEMPO 1609/1615 03007G12MPS
       
OIZI 152100Z 10004KT CAVOK 35/17 Q1001
OIZJ 152100Z 10014KT 5000 BR SCT015 31/29 Q0997
OIIK 152300Z 23002KT CAVOK 18/11 Q1015
OIAA 152300Z 26006KT CAVOK 30/09 Q0998
TAF OIAA 152330Z 1600/1706 270004MPS 7000 NSC 
     TEMPO 1609/1615 32007G12MPS 
     TEMPO 1700/1706 28008MPS
       
OIAG 152000Z 00000KT CAVOK 34/05 Q0998
OIAH 152300Z 00000KT CAVOK 29/02 Q1003
OIAM 152300Z 30004KT CAVOK 30/13 Q0997
OIAW 152300Z 29006KT 7000 NSC 34/08 Q0997
TAF OIAW 152330Z 1600/1706 28004MPS 6000 NSC 
     PROB40 1601/1603 4000 FU 
     TEMPO 1604/1608 3000 DU 
     TEMPO 1609/1615 32007G12MPS
       
OIBB 152000Z 00000KT CAVOK 31/20 Q0998 A2948
OIBK 152300Z 27004KT 4000 BR NSC 32/30 Q0996
TAF OIBK 152330Z 1600/1706 28004MPS 4000 BR NSC 
     TEMPO 1601/1604 2000 BR 
     TEMPO 1604/1610 12007MPS 5000 HZ 
     TEMPO 1620/1704 3000 BR
       
OIBL 152100Z 00000KT 5000 HZ NSC 34/24 Q0996
OIBP 151800Z 00000KT 8000 NSC 34/28 Q0997 A2946
OICC 152300Z 11004KT CAVOK 20/M03 Q1011 A2988
OICI 152300Z 09002KT 8000 NSC 22/03 Q1012 A2990
TAF OICI 152330Z 1600/1706 09004MPS 7000 NSC 
     TEMPO 1609/1612 21007MPS
       
OIFM 152300Z 32004KT CAVOK 20/M04 Q1015 A2998
TAF OIFM 152330Z 1600/1706 27004MPS 7000 NSC 
     TEMPO 1600/1604 5000 HZ 
     BECMG 1606/1608 11004MPS 
     TEMPO 1615/1621 15007G12MPS
       
OIFS 152300Z 26004KT CAVOK 15/M06 Q1020
OIGG 152300Z 24006KT 9999 FEW020 BKN070 23/18 Q1015
OIIE 152300Z 32020KT CAVOK 22/11 Q1012
TAF OIIE 152330Z 1600/1706 33007MPS CAVOK 
     BECMG 1606/1608 12004MPS 
     TEMPO 1612/1618 10007G12MPS
       
OIII 152300Z 27008KT CAVOK 25/08 Q1013 A2992 NOSIG
TAF OIII 152330Z 1600/1706 15004MPS CAVOK 
     TEMPO 1612/1616 12008MPS
       
OIIK 152300Z 23002KT CAVOK 18/11 Q1015
OIIP 151800Z 28012KT CAVOK 23/06 Q1013
OIKB 152300Z 03006KT 3000 HZ NSC 31/27 Q0997 A2946
TAF OIKB 152330Z 1600/1706 04004MPS 3000 HZ NSC 
     BECMG 1600/1602 2000 BR 
     BECMG 1604/1606 4000 HZ 
     TEMPO 1609/1715 18007MPS
       
OIKK 152300Z 00000KT CAVOK 17/M12 Q1016 A3000
TAF OIKK 152330Z 1600/1706 34004MPS CAVOK 
     TEMPO 1609/1615 03007G12MPS
       
OIKQ 152300Z 00000KT 3000 BR NSC 32/28 Q0997
OIMB 152300Z 10010KT CAVOK 23/M03 Q1014
OIMC 152300Z AUTO 36004KT //// // ////// 26/09 Q1009
OIMD 152300Z AUTO 26010KT //// // ////// 22/M00 Q1011
OIMM 152300Z 00000KT CAVOK 24/06 Q1015 A2998
TAF OIMM 152330Z 1600/1706 33004MPS CAVOK 
     TEMPO 1609/1615 06007G12MPS
       
OIMN 152300Z 21002KT CAVOK 21/16 Q1018
OIMQ 152300Z AUTO 05010KT //// // ////// 29/05 Q1012
OINE 152300Z AUTO 20004KT //// // ////// 24/20 Q1014
OING 152300Z 21004KT 9999 FEW025 BKN090 25/20 Q1015
OINN 152300Z 00000KT 9999 FEW020CB BKN025 22/20 Q1013
OINR 152100Z 00000KT 9999 FEW027 SCT090 23/19 Q1013
OINZ 152300Z 20004KT 9999 SCT030 BKN090 24/21 Q1014
OISF 152300Z 00000KT CAVOK 25/05 Q1006
OISL 152100Z 00000KT CAVOK 33/14 Q1003
TAF OISL 152330Z 1600/1706 25004MPS CAVOK 
     TEMPO 1615/1618 21007MPS
       
OISS 152300Z 00000KT CAVOK 23/04 Q1011 A2987
TAF OISS 152330Z 1600/1706 27004MPS 8000 NSC
       
OISY 152300Z 00000KT CAVOK 21/00 Q1016
OITM 152100Z 10017KT CAVOK 22/09 Q1015
OITP 152300Z AUTO 14004KT //// // ////// 21/17 Q1013
OITR 152300Z 35006KT CAVOK 20/09 Q1016
TAF OITR 152330Z 1600/1706 35004MPS 8000 FEW035 
     TEMPO 1606/1612 04008MPS
       
OITT 152300Z 07010KT CAVOK 19/10 Q1018 A3007
TAF OITT 152330Z 1600/1706 09006MPS 8000 FEW035 
     TEMPO 1606/1609 09009G14MPS 
     TEMPO 1612/1615 09004MPS
       
OIYY 152300Z 17002KT CAVOK 24/M12 Q1012
OIZB 152100Z 36023KT CAVOK 32/01 Q0999
OIZH 152300Z 20004KT CAVOK 21/M05 Q1011 A2987
TAF OIZH 152330Z 1600/1706 27004MPS 8000 NSC 
     TEMPO 1609/1615 03007G12MPS
       
OIZI 152100Z 10004KT CAVOK 35/17 Q1001
OIZJ 152100Z 10014KT 5000 BR SCT015 31/29 Q0997
OING 152300Z 21004KT 9999 FEW025 BKN090 25/20 Q1015
OICI 152300Z 09002KT 8000 NSC 22/03 Q1012 A2990
TAF OICI 152330Z 1600/1706 09004MPS 7000 NSC 
     TEMPO 1609/1612 21007MPS
       
OIZI 152100Z 10004KT CAVOK 35/17 Q1001
OIZJ 152100Z 10014KT 5000 BR SCT015 31/29 Q0997
OINE 152300Z AUTO 20004KT //// // ////// 24/20 Q1014
OIKK 152300Z 00000KT CAVOK 17/M12 Q1016 A3000
TAF OIKK 152330Z 1600/1706 34004MPS CAVOK 
     TEMPO 1609/1615 03007G12MPS
       
OIBK 152300Z 27004KT 4000 BR NSC 32/30 Q0996
TAF OIBK 152330Z 1600/1706 28004MPS 4000 BR NSC 
     TEMPO 1601/1604 2000 BR 
     TEMPO 1604/1610 12007MPS 5000 HZ 
     TEMPO 1620/1704 3000 BR
       
OISL 152100Z 00000KT CAVOK 33/14 Q1003
TAF OISL 152330Z 1600/1706 25004MPS CAVOK 
     TEMPO 1615/1618 21007MPS
       
OIAM 152300Z 30004KT CAVOK 30/13 Q0997
OIMM 152300Z 00000KT CAVOK 24/06 Q1015 A2998
TAF OIMM 152330Z 1600/1706 33004MPS CAVOK 
     TEMPO 1609/1615 06007G12MPS
       
OIII 152300Z 27008KT CAVOK 25/08 Q1013 A2992 NOSIG
TAF OIII 152330Z 1600/1706 15004MPS CAVOK 
     TEMPO 1612/1616 12008MPS
       
OINN 152300Z 00000KT 9999 FEW020CB BKN025 22/20 Q1013
OITP 152300Z AUTO 14004KT //// // ////// 21/17 Q1013
OIIP 151800Z 28012KT CAVOK 23/06 Q1013
OINR 152100Z 00000KT 9999 FEW027 SCT090 23/19 Q1013
OIGG 152300Z 24006KT 9999 FEW020 BKN070 23/18 Q1015
OITM 152100Z 10017KT CAVOK 22/09 Q1015
OIMC 152300Z AUTO 36004KT //// // ////// 26/09 Q1009
OINZ 152300Z 20004KT 9999 SCT030 BKN090 24/21 Q1014
OICC 152300Z 11004KT CAVOK 20/M03 Q1011 A2988
OIFS 152300Z 26004KT CAVOK 15/M06 Q1020
OISS 152300Z 00000KT CAVOK 23/04 Q1011 A2987
TAF OISS 152330Z 1600/1706 27004MPS 8000 NSC
       
OITT 152300Z 07010KT CAVOK 19/10 Q1018 A3007
TAF OITT 152330Z 1600/1706 09006MPS 8000 FEW035 
     TEMPO 1606/1609 09009G14MPS 
     TEMPO 1612/1615 09004MPS
       
OITR 152300Z 35006KT CAVOK 20/09 Q1016
TAF OITR 152330Z 1600/1706 35004MPS 8000 FEW035 
     TEMPO 1606/1612 04008MPS
       
OISY 152300Z 00000KT CAVOK 21/00 Q1016
OIYY 152300Z 17002KT CAVOK 24/M12 Q1012
OIZB 152100Z 36023KT CAVOK 32/01 Q0999
OIZH 152300Z 20004KT CAVOK 21/M05 Q1011 A2987
TAF OIZH 152330Z 1600/1706 27004MPS 8000 NSC 
     TEMPO 1609/1615 03007G12MPS